UAL1123 KDEN-KSAN

Flight info

Callsign UAL1123
Flight time 1h 54m
Altitude 34000
Route BAYLR6 TEHRU PLNDL Q86 TTRUE LUCKI1
Aircraft A21N/M-SDE2E3FGHIRWXY/LB1

Departure

Time 2026-04-21 04:25
Airport Denver International Airport (KDEN)

Arrival

Time 2026-04-21 06:19
Airport San Diego International Airport (KSAN)
Time Latitude Longitude Altitude Speed Heading
2026-04-21 03:37 39.85810 -104.67144 5383 ft 0 kts
2026-04-21 04:12 39.85804 -104.67144 5382 ft 2 kts
2026-04-21 04:12 39.85785 -104.67144 5381 ft 3 kts
2026-04-21 04:13 39.85764 -104.67145 5379 ft 3 kts
2026-04-21 04:13 39.85744 -104.67145 5382 ft 3 kts
2026-04-21 04:13 39.85725 -104.67145 5380 ft 2 kts
2026-04-21 04:13 39.85720 -104.67145 5381 ft 0 kts
2026-04-21 04:17 39.85723 -104.67144 5380 ft 2 kts 18°
2026-04-21 04:18 39.85732 -104.67089 5379 ft 12 kts 98°
2026-04-21 04:18 39.85728 -104.66916 5384 ft 25 kts 93°
2026-04-21 04:18 39.85685 -104.66733 5386 ft 19 kts 101°
2026-04-21 04:18 39.85681 -104.66557 5388 ft 20 kts 90°
2026-04-21 04:19 39.85678 -104.66383 5389 ft 19 kts 91°
2026-04-21 04:19 39.85720 -104.66242 5397 ft 17 kts 19°
2026-04-21 04:19 39.85845 -104.66234 5393 ft 19 kts 359°
2026-04-21 04:19 39.85992 -104.66230 5388 ft 25 kts
2026-04-21 04:20 39.86175 -104.66229 5394 ft 27 kts
2026-04-21 04:20 39.86368 -104.66226 5397 ft 27 kts
2026-04-21 04:20 39.86501 -104.66159 5389 ft 21 kts 88°
2026-04-21 04:20 39.86497 -104.65958 5388 ft 25 kts 91°
2026-04-21 04:21 39.86496 -104.65699 5390 ft 32 kts 91°
2026-04-21 04:21 39.86494 -104.65388 5382 ft 37 kts 91°
2026-04-21 04:21 39.86492 -104.65080 5368 ft 30 kts 90°
2026-04-21 04:21 39.86490 -104.64787 5361 ft 35 kts 91°
2026-04-21 04:22 39.86488 -104.64492 5354 ft 30 kts 91°
2026-04-21 04:22 39.86486 -104.64343 5354 ft 17 kts 90°
2026-04-21 04:22 39.86479 -104.64149 5352 ft 11 kts 124°
2026-04-21 04:22 39.86456 -104.64133 5353 ft 0 kts 173°
2026-04-21 04:24 39.86453 -104.64133 5353 ft 5 kts 174°
2026-04-21 04:24 39.86117 -104.64135 5362 ft 94 kts 180°
2026-04-21 04:24 39.85148 -104.64146 5377 ft 178 kts 179°
2026-04-21 04:24 39.83822 -104.64179 5983 ft 207 kts 179°
2026-04-21 04:25 39.82277 -104.64222 6666 ft 233 kts 185°
2026-04-21 04:25 39.80718 -104.64903 7692 ft 243 kts 211°
2026-04-21 04:25 39.79410 -104.66332 8828 ft 249 kts 225°
2026-04-21 04:25 39.78197 -104.67963 10024 ft 254 kts 227°
2026-04-21 04:26 39.76928 -104.69724 10718 ft 283 kts 228°
2026-04-21 04:26 39.75611 -104.71835 11142 ft 322 kts 240°
2026-04-21 04:26 39.74928 -104.74601 10877 ft 319 kts 269°
2026-04-21 04:26 39.75330 -104.77356 10501 ft 307 kts 292°
2026-04-21 04:27 39.76273 -104.79795 10188 ft 296 kts 293°
2026-04-21 04:27 39.76783 -104.82304 10111 ft 279 kts 279°
2026-04-21 04:27 39.77044 -104.84711 10093 ft 260 kts 278°
2026-04-21 04:27 39.77255 -104.86965 10082 ft 242 kts 277°
2026-04-21 04:28 39.77461 -104.89174 10106 ft 270 kts 276°
2026-04-21 04:28 39.77344 -104.91602 10080 ft 266 kts 256°
2026-04-21 04:28 39.76857 -104.93875 10185 ft 260 kts 254°
2026-04-21 04:28 39.76339 -104.96149 10818 ft 265 kts 253°
2026-04-21 04:29 39.75699 -104.98386 11911 ft 263 kts 249°
2026-04-21 04:29 39.75027 -105.00599 13029 ft 264 kts 249°
2026-04-21 04:29 39.74337 -105.02828 14035 ft 267 kts 249°
2026-04-21 04:29 39.73632 -105.05073 14966 ft 270 kts 249°
2026-04-21 04:30 39.72916 -105.07335 15932 ft 271 kts 248°
2026-04-21 04:30 39.72192 -105.09608 16912 ft 274 kts 248°
2026-04-21 04:30 39.71460 -105.11902 17882 ft 276 kts 247°
2026-04-21 04:30 39.70720 -105.14214 18757 ft 279 kts 247°
2026-04-21 04:31 39.69971 -105.16550 19562 ft 283 kts 248°
2026-04-21 04:31 39.69210 -105.18921 20374 ft 286 kts 248°
2026-04-21 04:31 39.68439 -105.21322 21184 ft 290 kts 249°
2026-04-21 04:31 39.67658 -105.23753 22006 ft 293 kts 249°
2026-04-21 04:32 39.66868 -105.26211 22806 ft 296 kts 249°
2026-04-21 04:32 39.66069 -105.28694 23574 ft 300 kts 250°
2026-04-21 04:32 39.65260 -105.31205 24196 ft 304 kts 250°
2026-04-21 04:32 39.64439 -105.33753 24763 ft 309 kts 250°
2026-04-21 04:33 39.63602 -105.36347 25326 ft 314 kts 250°
2026-04-21 04:33 39.62752 -105.38977 25879 ft 319 kts 250°
2026-04-21 04:33 39.61889 -105.41647 26424 ft 323 kts 250°
2026-04-21 04:33 39.61013 -105.44355 26962 ft 328 kts 250°
2026-04-21 04:34 39.60125 -105.47095 27491 ft 332 kts 250°
2026-04-21 04:34 39.59225 -105.49869 27999 ft 336 kts 250°
2026-04-21 04:34 39.58312 -105.52680 28507 ft 340 kts 251°
2026-04-21 04:34 39.57388 -105.55525 29012 ft 344 kts 251°
2026-04-21 04:35 39.56452 -105.58400 29485 ft 348 kts 251°
2026-04-21 04:35 39.55515 -105.61308 29948 ft 352 kts 252°
2026-04-21 04:35 39.54651 -105.64282 30363 ft 354 kts 254°
2026-04-21 04:35 39.53816 -105.67290 30840 ft 354 kts 254°
2026-04-21 04:36 39.52989 -105.70291 31319 ft 354 kts 254°
2026-04-21 04:36 39.52160 -105.73290 31752 ft 354 kts 254°
2026-04-21 04:36 39.51329 -105.76295 32174 ft 354 kts 254°
2026-04-21 04:36 39.50496 -105.79299 32606 ft 355 kts 254°
2026-04-21 04:37 39.49663 -105.82299 33013 ft 355 kts 254°
2026-04-21 04:37 39.48827 -105.85305 33409 ft 354 kts 255°
2026-04-21 04:37 39.47991 -105.88307 33795 ft 354 kts 255°
2026-04-21 04:37 39.47152 -105.91319 34055 ft 358 kts 255°
2026-04-21 04:38 39.46318 -105.94307 34083 ft 358 kts 255°
2026-04-21 04:38 39.44581 -106.00531 34084 ft 376 kts 254°
2026-04-21 04:38 39.43692 -106.03712 34094 ft 387 kts 254°
2026-04-21 04:39 39.42763 -106.07030 34093 ft 397 kts 254°
2026-04-21 04:39 39.40828 -106.13916 34092 ft 418 kts 254°
2026-04-21 04:40 39.38791 -106.21141 34099 ft 438 kts 253°
2026-04-21 04:40 39.36656 -106.28691 34323 ft 456 kts 253°
2026-04-21 04:41 39.34499 -106.36496 34335 ft 462 kts 257°
2026-04-21 04:41 39.32680 -106.43054 34333 ft 463 kts 252°
2026-04-21 04:42 39.30393 -106.50834 34299 ft 463 kts 253°
2026-04-21 04:42 39.28137 -106.58625 34248 ft 463 kts 253°
2026-04-21 04:43 39.25893 -106.66421 34219 ft 464 kts 253°
2026-04-21 04:43 39.23520 -106.74178 34265 ft 468 kts 242°
2026-04-21 04:44 39.19593 -106.80921 34271 ft 473 kts 232°
2026-04-21 04:44 39.15249 -106.87298 34279 ft 473 kts 232°
2026-04-21 04:44 39.13113 -106.90525 34075 ft 473 kts 232°
2026-04-21 04:45 39.11016 -106.93792 34050 ft 473 kts 233°
2026-04-21 04:45 39.06934 -107.00349 34051 ft 472 kts 234°
2026-04-21 04:46 39.02866 -107.06982 34065 ft 472 kts 234°
2026-04-21 04:46 38.98799 -107.13605 34053 ft 472 kts 234°
2026-04-21 04:47 38.94722 -107.20215 34045 ft 472 kts 234°
2026-04-21 04:47 38.90636 -107.26817 34050 ft 472 kts 234°
2026-04-21 04:48 38.86543 -107.33415 34033 ft 472 kts 234°
2026-04-21 04:48 38.82447 -107.40003 34023 ft 472 kts 234°
2026-04-21 04:49 38.78348 -107.46585 34044 ft 472 kts 234°
2026-04-21 04:49 38.74249 -107.53153 34019 ft 472 kts 234°
2026-04-21 04:50 38.70147 -107.59713 34022 ft 472 kts 233°
2026-04-21 04:50 38.66038 -107.66270 34000 ft 472 kts 233°
2026-04-21 04:51 38.61922 -107.72825 34005 ft 473 kts 233°
2026-04-21 04:51 38.57802 -107.79373 33996 ft 472 kts 233°
2026-04-21 04:51 38.55742 -107.82642 34173 ft 472 kts 233°
2026-04-21 04:52 38.53683 -107.85906 34174 ft 472 kts 233°
2026-04-21 04:52 38.49562 -107.92429 34175 ft 472 kts 233°
2026-04-21 04:53 38.45436 -107.98946 34171 ft 472 kts 233°
2026-04-21 04:53 38.41308 -108.05455 34134 ft 472 kts 233°
2026-04-21 04:54 38.37203 -108.11914 34092 ft 472 kts 233°
2026-04-21 04:54 38.33350 -108.18162 34106 ft 475 kts 233°
2026-04-21 04:55 38.29174 -108.24663 34026 ft 474 kts 232°
2026-04-21 04:55 38.24976 -108.31120 34024 ft 473 kts 232°
2026-04-21 04:56 38.20803 -108.37587 34022 ft 473 kts 233°
2026-04-21 04:56 38.16641 -108.44064 34009 ft 473 kts 232°
2026-04-21 04:57 38.12493 -108.50515 34019 ft 471 kts 232°
2026-04-21 04:57 38.08345 -108.56955 34021 ft 471 kts 232°
2026-04-21 04:58 38.04195 -108.63383 34022 ft 471 kts 232°
2026-04-21 04:58 38.00035 -108.69813 34018 ft 471 kts 232°
2026-04-21 04:59 37.95874 -108.76230 34016 ft 471 kts 232°
2026-04-21 04:59 37.91712 -108.82636 34021 ft 470 kts 232°
2026-04-21 05:00 37.87557 -108.89020 34013 ft 470 kts 232°
2026-04-21 05:00 37.81319 -108.98580 34015 ft 469 kts 232°
2026-04-21 05:01 37.77159 -109.04941 34011 ft 470 kts 232°
2026-04-21 05:01 37.72992 -109.11301 34033 ft 470 kts 232°
2026-04-21 05:02 37.68823 -109.17650 34055 ft 469 kts 231°
2026-04-21 05:02 37.64661 -109.23975 34090 ft 468 kts 231°
2026-04-21 05:03 37.60500 -109.30289 34123 ft 468 kts 231°
2026-04-21 05:03 37.56334 -109.36596 34153 ft 468 kts 231°
2026-04-21 05:04 37.52166 -109.42895 34156 ft 468 kts 231°
2026-04-21 05:04 37.47995 -109.49187 34146 ft 467 kts 231°
2026-04-21 05:05 37.43831 -109.55455 34113 ft 467 kts 231°
2026-04-21 05:05 37.39663 -109.61719 34075 ft 467 kts 231°
2026-04-21 05:06 37.35491 -109.67976 34032 ft 467 kts 231°
2026-04-21 05:06 37.31314 -109.74228 33977 ft 467 kts 231°
2026-04-21 05:07 37.27139 -109.80467 33965 ft 467 kts 231°
2026-04-21 05:07 37.22968 -109.86684 33971 ft 465 kts 230°
2026-04-21 05:08 37.18806 -109.92880 33971 ft 464 kts 230°
2026-04-21 05:08 37.14671 -109.99024 33962 ft 464 kts 230°
2026-04-21 05:09 37.10480 -110.05239 33956 ft 464 kts 230°
2026-04-21 05:09 37.06344 -110.11361 33951 ft 464 kts 230°
2026-04-21 05:10 37.02180 -110.17513 33952 ft 462 kts 231°
2026-04-21 05:10 36.98034 -110.23626 33947 ft 460 kts 230°
2026-04-21 05:11 36.93895 -110.29719 33945 ft 460 kts 230°
2026-04-21 05:11 36.89751 -110.35807 33944 ft 460 kts 230°
2026-04-21 05:12 36.85605 -110.41888 33944 ft 460 kts 230°
2026-04-21 05:12 36.81459 -110.47959 33940 ft 460 kts 230°
2026-04-21 05:13 36.77322 -110.54005 33939 ft 456 kts 230°
2026-04-21 05:13 36.73202 -110.60012 33942 ft 455 kts 230°
2026-04-21 05:14 36.69083 -110.66008 33931 ft 455 kts 230°
2026-04-21 05:14 36.64965 -110.71993 33931 ft 455 kts 230°
2026-04-21 05:15 36.60841 -110.77975 33920 ft 455 kts 230°
2026-04-21 05:15 36.56718 -110.83947 33917 ft 454 kts 229°
2026-04-21 05:16 36.52615 -110.89879 33918 ft 452 kts 229°
2026-04-21 05:16 36.48515 -110.95793 33923 ft 451 kts 229°
2026-04-21 05:17 36.44414 -111.01699 33920 ft 451 kts 229°
2026-04-21 05:17 36.40313 -111.07596 33920 ft 451 kts 229°
2026-04-21 05:18 36.36238 -111.13445 33921 ft 451 kts 229°
2026-04-21 05:18 36.32137 -111.19323 33927 ft 449 kts 229°
2026-04-21 05:19 36.28049 -111.25169 33929 ft 448 kts 229°
2026-04-21 05:19 36.23962 -111.31004 33936 ft 448 kts 229°
2026-04-21 05:20 36.19873 -111.36831 33935 ft 448 kts 229°
2026-04-21 05:20 36.15784 -111.42650 33952 ft 448 kts 229°
2026-04-21 05:21 36.11692 -111.48462 33951 ft 448 kts 229°
2026-04-21 05:21 36.07601 -111.54263 33974 ft 448 kts 229°
2026-04-21 05:22 36.03507 -111.60057 33980 ft 448 kts 229°
2026-04-21 05:22 35.99409 -111.65849 33980 ft 448 kts 229°
2026-04-21 05:23 35.95311 -111.71630 33994 ft 447 kts 229°
2026-04-21 05:23 35.91211 -111.77404 34032 ft 447 kts 229°
2026-04-21 05:24 35.87128 -111.83146 34094 ft 442 kts 228°
2026-04-21 05:24 35.83294 -111.89035 34023 ft 441 kts 238°
2026-04-21 05:25 35.80191 -111.95563 34048 ft 441 kts 239°
2026-04-21 05:25 35.77149 -112.02137 34049 ft 442 kts 239°
2026-04-21 05:26 35.74613 -112.07598 34056 ft 442 kts 239°
2026-04-21 05:26 35.71557 -112.14157 34058 ft 442 kts 239°
2026-04-21 05:27 35.68487 -112.20730 34049 ft 444 kts 239°
2026-04-21 05:27 35.65407 -112.27310 34047 ft 444 kts 239°
2026-04-21 05:28 35.62322 -112.33888 34029 ft 444 kts 239°
2026-04-21 05:28 35.59233 -112.40462 34030 ft 444 kts 238°
2026-04-21 05:29 35.56140 -112.47031 34026 ft 444 kts 238°
2026-04-21 05:29 35.53045 -112.53592 34017 ft 444 kts 238°
2026-04-21 05:30 35.49942 -112.60158 34005 ft 444 kts 238°
2026-04-21 05:30 35.46837 -112.66715 34004 ft 445 kts 238°
2026-04-21 05:31 35.43729 -112.73267 33994 ft 444 kts 238°
2026-04-21 05:31 35.40615 -112.79819 33998 ft 445 kts 238°
2026-04-21 05:32 35.37497 -112.86364 33986 ft 445 kts 238°
2026-04-21 05:32 35.34374 -112.92911 33986 ft 445 kts 238°
2026-04-21 05:33 35.31247 -112.99450 33974 ft 445 kts 238°
2026-04-21 05:33 35.28137 -113.05944 33974 ft 445 kts 238°
2026-04-21 05:34 35.25003 -113.12474 33969 ft 445 kts 238°
2026-04-21 05:34 35.21861 -113.19009 33962 ft 446 kts 238°
2026-04-21 05:35 35.18712 -113.25547 33948 ft 446 kts 238°
2026-04-21 05:35 35.15560 -113.32079 33948 ft 446 kts 238°
2026-04-21 05:36 35.12400 -113.38614 33936 ft 447 kts 238°
2026-04-21 05:36 35.09236 -113.45144 33938 ft 447 kts 238°
2026-04-21 05:37 35.06061 -113.51686 33920 ft 448 kts 238°
2026-04-21 05:37 35.02885 -113.58217 33923 ft 448 kts 238°
2026-04-21 05:38 34.99704 -113.64747 33918 ft 448 kts 238°
2026-04-21 05:38 34.96520 -113.71271 33918 ft 448 kts 238°
2026-04-21 05:39 34.93335 -113.77785 33906 ft 446 kts 238°
2026-04-21 05:39 34.90167 -113.84251 33906 ft 443 kts 238°
2026-04-21 05:40 34.87006 -113.90692 33892 ft 443 kts 238°
2026-04-21 05:40 34.83841 -113.97127 33888 ft 443 kts 238°
2026-04-21 05:41 34.80676 -114.03553 33876 ft 443 kts 238°
2026-04-21 05:41 34.77507 -114.09973 33890 ft 441 kts 238°
2026-04-21 05:42 34.74355 -114.16350 33894 ft 439 kts 238°
2026-04-21 05:42 34.71204 -114.22709 33911 ft 439 kts 238°
2026-04-21 05:43 34.68053 -114.29061 33924 ft 439 kts 238°
2026-04-21 05:43 34.64896 -114.35411 33933 ft 439 kts 238°
2026-04-21 05:44 34.61783 -114.40810 33897 ft 437 kts 228°
2026-04-21 05:44 34.57760 -114.46338 33895 ft 437 kts 227°
2026-04-21 05:45 34.53722 -114.51857 33894 ft 437 kts 227°
2026-04-21 05:45 34.49728 -114.57347 33864 ft 437 kts 228°
2026-04-21 05:46 34.47703 -114.60134 33271 ft 433 kts 227°
2026-04-21 05:46 34.45736 -114.62841 32213 ft 436 kts 227°
2026-04-21 05:46 34.43716 -114.65619 31071 ft 442 kts 227°
2026-04-21 05:46 34.41673 -114.68428 29986 ft 446 kts 227°
2026-04-21 05:47 34.39621 -114.71246 29031 ft 445 kts 227°
2026-04-21 05:47 34.37590 -114.74037 28249 ft 438 kts 227°
2026-04-21 05:47 34.35586 -114.76786 27466 ft 433 kts 227°
2026-04-21 05:47 34.33602 -114.79503 26688 ft 428 kts 227°
2026-04-21 05:48 34.31640 -114.82187 25955 ft 424 kts 227°
2026-04-21 05:48 34.29697 -114.84842 25319 ft 419 kts 227°
2026-04-21 05:48 34.27770 -114.87474 24968 ft 418 kts 227°
2026-04-21 05:48 34.25842 -114.90104 24885 ft 418 kts 227°
2026-04-21 05:49 34.23913 -114.92735 24880 ft 417 kts 227°
2026-04-21 05:49 34.21991 -114.95353 24880 ft 417 kts 227°
2026-04-21 05:49 34.20066 -114.97974 24880 ft 417 kts 227°
2026-04-21 05:49 34.18142 -115.00592 24885 ft 417 kts 227°
2026-04-21 05:50 34.16219 -115.03208 24894 ft 416 kts 227°
2026-04-21 05:50 34.14300 -115.05815 24890 ft 415 kts 227°
2026-04-21 05:50 34.12387 -115.08412 24891 ft 414 kts 227°
2026-04-21 05:50 34.10472 -115.11011 24891 ft 414 kts 227°
2026-04-21 05:51 34.08556 -115.13608 24893 ft 414 kts 227°
2026-04-21 05:51 34.06643 -115.16199 24898 ft 414 kts 227°
2026-04-21 05:51 34.04727 -115.18793 24897 ft 414 kts 227°
2026-04-21 05:51 34.02813 -115.21382 24899 ft 414 kts 226°
2026-04-21 05:52 34.00899 -115.23969 24903 ft 413 kts 226°
2026-04-21 05:52 33.98985 -115.26556 24901 ft 413 kts 227°
2026-04-21 05:52 33.97076 -115.29144 24914 ft 413 kts 227°
2026-04-21 05:52 33.95168 -115.31730 24914 ft 413 kts 227°
2026-04-21 05:53 33.93257 -115.34320 24913 ft 413 kts 226°
2026-04-21 05:53 33.91352 -115.36900 24912 ft 412 kts 226°
2026-04-21 05:53 33.89449 -115.39475 24924 ft 411 kts 226°
2026-04-21 05:53 33.87549 -115.42044 24925 ft 411 kts 226°
2026-04-21 05:54 33.85646 -115.44614 24929 ft 411 kts 226°
2026-04-21 05:54 33.83745 -115.47180 24930 ft 411 kts 226°
2026-04-21 05:54 33.81843 -115.49746 24925 ft 411 kts 226°
2026-04-21 05:54 33.79940 -115.52311 24934 ft 411 kts 226°
2026-04-21 05:55 33.78038 -115.54874 24928 ft 411 kts 226°
2026-04-21 05:55 33.76135 -115.57435 24931 ft 411 kts 226°
2026-04-21 05:55 33.74233 -115.59994 24930 ft 411 kts 226°
2026-04-21 05:55 33.72329 -115.62553 24931 ft 411 kts 226°
2026-04-21 05:56 33.70420 -115.65108 24934 ft 411 kts 226°
2026-04-21 05:56 33.68503 -115.67653 24933 ft 411 kts 226°
2026-04-21 05:56 33.66601 -115.70167 24934 ft 412 kts 226°
2026-04-21 05:56 33.64673 -115.72712 24936 ft 412 kts 226°
2026-04-21 05:57 33.62741 -115.75253 24932 ft 412 kts 226°
2026-04-21 05:57 33.60974 -115.77964 24936 ft 414 kts 233°
2026-04-21 05:57 33.59330 -115.80797 24934 ft 414 kts 233°
2026-04-21 05:57 33.57704 -115.83646 24937 ft 414 kts 233°
2026-04-21 05:58 33.56076 -115.86492 24936 ft 414 kts 233°
2026-04-21 05:58 33.54444 -115.89336 24947 ft 414 kts 233°
2026-04-21 05:58 33.52808 -115.92174 24944 ft 414 kts 233°
2026-04-21 05:58 33.51172 -115.95008 24943 ft 414 kts 233°
2026-04-21 05:59 33.49547 -115.97819 24553 ft 406 kts 233°
2026-04-21 05:59 33.47937 -116.00600 23738 ft 406 kts 233°
2026-04-21 05:59 33.46326 -116.03377 22838 ft 406 kts 233°
2026-04-21 06:00 33.43139 -116.08868 21296 ft 397 kts 233°
2026-04-21 06:00 33.41572 -116.11564 20582 ft 392 kts 233°
2026-04-21 06:00 33.40021 -116.14231 20120 ft 390 kts 233°
2026-04-21 06:00 33.38472 -116.16892 19959 ft 390 kts 233°
2026-04-21 06:01 33.36921 -116.19554 19939 ft 390 kts 233°
2026-04-21 06:01 33.35372 -116.22209 19933 ft 389 kts 233°
2026-04-21 06:01 33.33873 -116.24906 19934 ft 390 kts 235°
2026-04-21 06:01 33.32138 -116.27351 19976 ft 384 kts 217°
2026-04-21 06:02 33.29836 -116.28889 19856 ft 376 kts 200°
2026-04-21 06:02 33.27384 -116.29846 19421 ft 365 kts 197°
2026-04-21 06:02 33.25024 -116.30787 19145 ft 351 kts 199°
2026-04-21 06:02 33.22777 -116.31815 18727 ft 342 kts 201°
2026-04-21 06:03 33.20603 -116.32917 18196 ft 337 kts 203°
2026-04-21 06:03 33.18475 -116.34066 17531 ft 334 kts 204°
2026-04-21 06:03 33.16376 -116.35241 16857 ft 332 kts 205°
2026-04-21 06:03 33.14298 -116.36427 16254 ft 330 kts 205°
2026-04-21 06:04 33.12240 -116.37614 15644 ft 327 kts 205°
2026-04-21 06:04 33.10203 -116.38795 15088 ft 325 kts 205°
2026-04-21 06:04 33.08185 -116.39968 14515 ft 321 kts 205°
2026-04-21 06:04 33.06181 -116.41135 13937 ft 320 kts 205°
2026-04-21 06:05 33.04191 -116.42294 13356 ft 316 kts 205°
2026-04-21 06:05 33.02221 -116.43443 13065 ft 315 kts 205°
2026-04-21 06:05 33.00264 -116.44631 13021 ft 316 kts 213°
2026-04-21 06:05 32.98578 -116.46264 13031 ft 305 kts 218°
2026-04-21 06:06 32.97022 -116.47858 13027 ft 285 kts 219°
2026-04-21 06:06 32.95591 -116.49352 12876 ft 271 kts 219°
2026-04-21 06:06 32.94177 -116.50813 12679 ft 261 kts 219°
2026-04-21 06:06 32.92822 -116.52200 12330 ft 253 kts 219°
2026-04-21 06:07 32.91511 -116.53532 11841 ft 250 kts 218°
2026-04-21 06:07 32.90187 -116.54872 11332 ft 249 kts 218°
2026-04-21 06:07 32.88866 -116.56207 10785 ft 250 kts 218°
2026-04-21 06:07 32.87547 -116.57537 10315 ft 248 kts 219°
2026-04-21 06:08 32.86232 -116.58863 9816 ft 247 kts 219°
2026-04-21 06:08 32.84929 -116.60175 9385 ft 241 kts 219°
2026-04-21 06:08 32.83676 -116.61437 8971 ft 233 kts 219°
2026-04-21 06:08 32.82448 -116.62673 8460 ft 230 kts 219°
2026-04-21 06:09 32.81228 -116.63901 8147 ft 230 kts 219°
2026-04-21 06:09 32.80006 -116.65130 8091 ft 230 kts 219°
2026-04-21 06:09 32.78786 -116.66357 8087 ft 229 kts 219°
2026-04-21 06:09 32.77602 -116.67621 8086 ft 229 kts 227°
2026-04-21 06:10 32.76695 -116.69182 8090 ft 230 kts 237°
2026-04-21 06:10 32.75904 -116.70825 7713 ft 229 kts 239°
2026-04-21 06:10 32.75139 -116.72469 7192 ft 226 kts 240°
2026-04-21 06:10 32.74381 -116.74098 6686 ft 225 kts 240°
2026-04-21 06:11 32.73623 -116.75715 6301 ft 224 kts 240°
2026-04-21 06:11 32.72862 -116.77329 6114 ft 224 kts 240°
2026-04-21 06:11 32.72099 -116.78944 6090 ft 224 kts 240°
2026-04-21 06:11 32.71336 -116.80554 6088 ft 223 kts 240°
2026-04-21 06:12 32.70641 -116.82203 6097 ft 223 kts 246°
2026-04-21 06:12 32.70073 -116.83916 6005 ft 222 kts 249°
2026-04-21 06:12 32.69538 -116.85631 5501 ft 221 kts 249°
2026-04-21 06:12 32.69180 -116.86788 5245 ft 221 kts 250°
2026-04-21 06:13 32.68660 -116.88515 5111 ft 223 kts 251°
2026-04-21 06:13 32.68169 -116.90177 5096 ft 202 kts 251°
2026-04-21 06:13 32.67721 -116.91696 5102 ft 191 kts 251°
2026-04-21 06:13 32.67337 -116.93195 5097 ft 190 kts 261°
2026-04-21 06:14 32.67433 -116.94745 5102 ft 189 kts 281°
2026-04-21 06:14 32.67768 -116.96255 4803 ft 189 kts 286°
2026-04-21 06:14 32.68147 -116.97745 4398 ft 188 kts 287°
2026-04-21 06:14 32.68522 -116.99209 4151 ft 179 kts 286°
2026-04-21 06:15 32.68866 -117.00571 3854 ft 169 kts 286°
2026-04-21 06:15 32.69199 -117.01908 3410 ft 170 kts 286°
2026-04-21 06:15 32.69526 -117.03240 3079 ft 166 kts 286°
2026-04-21 06:15 32.69839 -117.04552 2799 ft 164 kts 285°
2026-04-21 06:16 32.70142 -117.05860 2511 ft 162 kts 285°
2026-04-21 06:16 32.70430 -117.07119 2161 ft 154 kts 285°
2026-04-21 06:16 32.70720 -117.08353 1817 ft 157 kts 287°
2026-04-21 06:16 32.71047 -117.09605 1523 ft 161 kts 288°
2026-04-21 06:17 32.71380 -117.10882 1307 ft 163 kts 287°
2026-04-21 06:17 32.71703 -117.12141 1052 ft 155 kts 288°
2026-04-21 06:17 32.72002 -117.13355 816 ft 154 kts 286°
2026-04-21 06:17 32.72291 -117.14581 652 ft 154 kts 287°
2026-04-21 06:18 32.72587 -117.15785 434 ft 150 kts 287°
2026-04-21 06:18 32.72864 -117.16942 235 ft 146 kts 287°
2026-04-21 06:18 32.73145 -117.18100 57 ft 140 kts 288°
2026-04-21 06:18 32.73392 -117.19105 27 ft 101 kts 285°
2026-04-21 06:19 32.73510 -117.19602 31 ft 37 kts 285°
2026-04-21 06:19 32.73515 -117.19814 32 ft 12 kts 241°
2026-04-21 06:19 32.73500 -117.19833 31 ft 6 kts 216°
2026-04-21 06:19 32.73473 -117.19853 30 ft 18 kts 217°
2026-04-21 06:20 32.73385 -117.19934 30 ft 13 kts 196°
2026-04-21 06:20 32.73364 -117.19947 30 ft 0 kts 230°
2026-04-21 06:20 32.73349 -117.19968 29 ft 10 kts 233°
2026-04-21 06:20 32.73331 -117.19994 29 ft 4 kts 233°
2026-04-21 06:21 32.73328 -117.20043 29 ft 1 kts 278°
2026-04-21 06:21 32.73330 -117.20057 28 ft 0 kts 278°